This is the latest recevied weather packets stored in our database for station/object KF0WJA. If no packets are shown the sender has not sent any weather packets the latest 10 day(s).
| Time | Temp. | Humidity | Pressure | Rain* | Wind** | Luminosity | Snow |
|---|---|---|---|---|---|---|---|
| 1787442570 | 30.56° C | 57% | 1019.9 hPa | 0 mm | - | 153 W/m² | - |
| 1787442266 | 30.56° C | 56% | 1019.8 hPa | 0 mm | - | 168 W/m² | - |
| 1787441960 | 30.56° C | 55% | 1019.9 hPa | 0 mm | - | 180 W/m² | - |
| 1787441655 | 30.56° C | 54% | 1019.7 hPa | 0 mm | - | 195 W/m² | - |
| 1787441350 | 30.56° C | 54% | 1019.9 hPa | 0 mm | - | 209 W/m² | - |
| 1787441046 | 31.11° C | 54% | 1019.9 hPa | 0 mm | - | 227 W/m² | - |
| 1787440742 | 31.11° C | 54% | 1019.9 hPa | 0 mm | - | 242 W/m² | - |
| 1787440436 | 31.11° C | 53% | 1019.8 hPa | 0 mm | - | 270 W/m² | - |
| 1787440134 | 31.11° C | 52% | 1019.8 hPa | 0 mm | - | 270 W/m² | - |
| 1787439828 | 31.11° C | 53% | 1020 hPa | 0 mm | - | 292 W/m² | - |
| 1787439524 | 31.67° C | 53% | 1019.9 hPa | 0 mm | - | 312 W/m² | - |
| 1787439220 | 31.67° C | 52% | 1020.1 hPa | 0 mm | - | 328 W/m² | - |
| 1787438916 | 31.67° C | 52% | 1020.2 hPa | 0 mm | - | 344 W/m² | - |
| 1787438616 | 31.67° C | 52% | 1020.1 hPa | 0 mm | - | 360 W/m² | - |
| 1787438311 | 31.67° C | 52% | 1020.1 hPa | 0 mm | - | 384 W/m² | - |
| 1787438010 | 31.67° C | 52% | 1020.1 hPa | 0 mm | - | 392 W/m² | - |
| 1787437706 | 31.67° C | 52% | 1020 hPa | 0 mm | - | 382 W/m² | - |
| 1787437403 | 31.67° C | 52% | 1020.1 hPa | 0 mm | - | 422 W/m² | - |
| 1787437099 | 32.22° C | 52% | 1020.1 hPa | 0 mm | - | 425 W/m² | - |
| 1787436795 | 31.67° C | 53% | 1019.9 hPa | 0 mm | - | 414 W/m² | - |
| 1787436492 | 31.67° C | 52% | 1020.1 hPa | 0 mm | - | 424 W/m² | - |
| 1787436190 | 31.67° C | 51% | 1020.2 hPa | 0 mm | - | 430 W/m² | - |
| 1787435890 | 32.22° C | 51% | 1020.2 hPa | 0 mm | - | 452 W/m² | - |
| 1787435587 | 32.22° C | 51% | 1020.3 hPa | 0 mm | - | 468 W/m² | - |
| 1787435283 | 31.67° C | 51% | 1020.1 hPa | 0 mm | - | 483 W/m² | - |
* Rain latest hour (hover to see other rain measurements)
** Current wind speed in m/s (hover to see current wind gust speed)